Helicity
79 85 86 79 54 57 73 75 60 65 56 65 64 71 78 75 55 34 19 12 34 48 62 83 91 102 98 92 86 84 80 70 66
75 83 96 101 82 70 66 75 89 94 93 83 89 106 96 79 67 38 24 23 59 66 59 66 77 85 96 97 96 89 89 85 78
76 87 72 74 85 88 102 110 78 87 103 120 122 138 138 112 97 65 45 57 63 71 70 66 78 89 100 99 97 88 84 77 70
87 83 81 66 66 83 86 81 89 91 86 114 127 149 157 128 125 95 46 51 70 69 67 86 95 98 90 91 104 100 86 78 63
138 129 89 75 67 75 91 90 97 102 107 104 127 141 169 141 122 120 55 58 73 100 110 119 91 78 97 123 106 98 93 78 62
123 120 120 100 81 77 75 79 73 107 147 153 164 154 111 137 125 118 92 73 108 138 143 135 89 76 94 133 162 153 97 80 69
116 129 132 124 115 102 86 88 112 105 89 123 148 116 125 152 177 156 166 65 99 99 107 74 66 83 63 89 140 160 87 57 54
131 130 146 149 145 131 125 114 102 103 114 107 117 171 174 141 141 176 216 98 54 130 114 78 64 61 50 59 56 96 69 91 60
153 136 140 143 137 136 129 129 114 113 113 97 109 108 133 155 187 239 159 264 159 17 133 114 56 53 34 31 59 83 90 106 113
156 154 152 152 138 137 140 133 126 135 132 132 121 124 135 158 174 260 316 337 217 154 82 93 114 127 109 135 134 126 114 114 118
175 180 173 169 150 137 135 111 100 101 107 128 120 139 149 169 204 231 329 350 312 325 297 231 138 140 123 142 159 150 131 127 119
152 159 177 178 164 166 168 149 122 128 138 149 143 147 174 175 186 209 230 270 386 333 444 443 354 291 255 272 279 273 241 203 185
155 166 189 181 184 185 181 159 143 128 115 123 132 157 200 187 171 194 207 192 207 308 356 378 453 523 465 352 291 263 237 244 237
132 150 175 179 181 181 143 178 131 121 126 136 152 165 189 233 186 193 219 211 208 205 258 323 387 393 407 357 300 213 222 217 255
137 148 173 184 189 193 177 171 194 174 125 114 146 159 176 221 200 203 216 237 238 235 244 221 238 305 306 307 357 316 188 225 234
156 149 160 175 181 162 162 188 187 206 149 102 133 151 199 239 235 213 191 201 203 196 192 162 156 178 255 275 270 324 266 236 222
161 170 173 174 161 185 182 155 168 185 173 93 93 88 112 189 220 190 175 184 166 160 123 77 95 149 162 207 258 292 319 264 186
183 193 194 191 186 185 180 177 164 160 207 196 118 101 100 131 159 183 178 171 168 142 134 131 127 118 133 192 235 306 331 269 172
228 205 209 230 203 196 188 181 164 149 185 183 200 182 145 126 124 159 163 172 178 167 148 134 119 108 118 186 195 223 227 224 193
272 260 239 227 229 236 213 217 200 184 162 182 186 229 235 212 138 136 152 193 194 187 167 132 102 104 101 121 167 204 216 212 192
Wind_Speed
38 38 35 34 34 33 30 29 29 26 26 27 29 26 23 23 24 25 28 30 30 31 31 32 30 32 33 34 34 35 35 35 36
39 38 35 34 34 32 32 30 28 27 26 26 26 25 24 23 24 25 26 27 28 31 33 30 31 31 31 32 33 34 35 36 36
38 37 36 32 31 29 29 30 32 28 26 25 26 25 24 24 24 25 26 26 28 30 32 32 30 31 31 31 31 32 33 34 34
33 34 34 31 27 28 27 31 29 29 28 26 26 26 25 25 25 26 26 26 27 27 30 31 34 29 29 30 30 31 32 33 33
30 28 29 29 28 30 30 29 28 29 28 27 27 25 26 26 26 26 28 26 25 24 26 28 31 31 31 30 29 30 30 31 32
28 27 26 27 28 30 31 30 29 28 28 28 28 27 26 27 30 33 32 26 23 23 24 26 28 29 29 28 28 29 27 29 30
26 27 27 27 27 29 29 29 29 29 29 28 27 27 28 29 32 36 35 31 21 17 19 23 25 28 28 27 28 25 26 28 30
26 27 27 26 26 26 27 27 28 29 30 30 28 26 28 29 33 39 39 35 29 23 21 22 29 28 26 26 29 25 25 28 31
25 26 27 26 25 24 25 26 27 28 28 29 31 30 29 28 29 34 40 43 39 26 14 24 37 31 25 22 29 32 30 31 33
24 26 26 25 23 22 22 24 25 27 28 29 30 31 31 28 27 29 30 31 41 44 35 31 36 33 25 28 28 28 30 32 35
24 25 26 25 22 20 20 21 24 26 27 28 29 30 30 28 27 27 27 30 34 33 37 41 39 33 33 31 31 33 34 34 34
25 24 26 26 23 20 19 21 24 25 26 28 29 31 29 28 29 28 27 29 33 32 33 37 36 39 37 40 43 43 41 38 39
26 25 26 26 23 19 19 20 21 24 26 27 30 31 30 30 30 30 29 30 31 33 36 37 39 42 42 43 43 44 43 42 39
26 26 25 23 22 20 19 21 21 22 26 26 27 30 31 31 29 30 30 30 32 33 36 37 39 39 42 43 44 44 42 41 42
25 24 23 23 20 22 21 19 21 22 21 24 28 29 29 29 28 29 29 31 33 35 37 35 37 41 43 44 44 46 42 42 43
24 23 24 25 25 25 24 21 19 20 23 24 24 27 28 29 29 28 29 31 33 36 38 36 38 41 44 45 45 45 46 44 46
26 26 26 25 26 28 28 30 26 28 31 26 23 29 30 30 30 28 29 31 33 36 38 39 41 42 44 46 47 45 46 48 49
27 27 27 27 26 28 30 34 32 30 32 31 31 32 36 28 32 30 30 31 33 35 38 40 42 44 45 47 47 47 47 49 49
26 27 27 27 28 28 30 33 34 34 33 35 35 32 30 34 36 32 31 32 34 36 38 41 43 46 47 49 48 48 50 50 51
27 27 26 27 28 30 29 31 34 34 36 38 39 36 34 34 35 38 33 32 36 37 39 41 44 46 47 49 50 51 52 52 53
Wind_Direction
35 29 18 16 26 32 30 30 34 30 30 27 30 22 5 7 3 6 22 31 36 35 30 31 27 27 28 27 26 25 24 25 27
42 33 20 15 20 22 32 33 29 28 18 14 16 15 10 1 356 354 356 24 30 35 34 32 32 31 27 24 24 25 23 23 22
41 36 25 12 13 13 14 22 34 25 18 7 7 5 1 355 350 347 354 20 27 31 36 37 32 31 28 24 21 21 21 20 17
31 32 28 17 4 6 8 17 16 21 22 14 8 10 2 353 348 345 351 16 23 25 38 37 39 27 23 25 22 19 18 18 18
19 10 16 17 15 8 9 9 6 11 9 16 10 1 358 352 338 335 334 358 16 21 22 28 38 29 24 21 18 19 15 13 15
17 13 8 10 15 18 10 6 5 3 2 358 4 359 351 351 338 327 328 349 11 22 25 21 16 17 19 20 14 17 12 11 10
5 4 6 6 11 16 13 5 2 359 0 355 356 1 359 356 344 334 326 328 359 24 30 22 21 15 17 21 23 13 11 10 5
3 2 360 5 5 9 12 14 5 4 358 0 355 351 353 353 357 353 349 326 329 21 30 21 13 20 15 23 28 18 5 357 357
350 353 356 359 357 6 10 10 11 5 1 356 360 358 355 347 352 355 11 17 5 349 13 55 48 42 28 23 26 29 19 11 4
341 340 342 349 353 354 3 3 2 4 1 353 349 353 357 352 351 359 4 7 12 24 42 47 37 34 33 27 18 9 4 2 357
328 328 329 334 339 338 346 359 4 2 2 359 348 342 347 348 348 352 352 1 7 8 16 22 24 22 18 8 5 2 357 355 351
321 324 323 322 324 329 334 343 350 352 352 352 349 340 344 341 344 348 343 340 358 354 357 5 8 11 9 9 8 9 7 -0 359
317 317 316 316 315 324 329 337 348 347 353 351 347 337 335 340 342 344 348 344 338 345 352 355 360 1 1 2 0 5 5 1 354
321 317 315 315 312 316 320 329 338 342 342 346 346 340 336 333 337 338 344 345 341 339 345 350 352 346 348 349 351 353 356 355 356
328 323 319 315 315 314 316 324 334 337 347 349 340 335 338 338 340 339 348 354 348 346 349 336 339 346 342 339 338 343 349 346 345
331 327 320 313 309 308 310 313 320 324 323 332 340 340 336 337 338 343 343 348 350 347 347 335 334 335 342 340 341 341 350 350 347
329 328 319 315 310 307 305 301 302 304 305 311 318 310 315 327 331 335 339 340 345 346 345 340 339 337 337 338 341 341 343 348 348
332 332 322 321 317 310 307 302 300 296 302 303 304 301 298 306 318 328 333 337 338 339 341 342 340 338 338 335 337 341 341 343 345
338 329 329 326 323 318 315 311 304 300 294 298 305 306 306 296 296 315 324 330 333 335 337 336 337 336 336 336 337 338 337 336 338
333 331 331 332 330 326 323 317 312 309 301 296 296 299 301 302 299 295 303 319 325 330 332 334 334 336 336 334 335 336 335 334 334